Location: Fours
(44.3167°N, 6.7000°E)
Time: 05:33:06
(UTC+00:00)

Cosmos 2263 - Pass Details

Date: 30 November 2020
Orbit: 833 x 864 km, 70.9° (Epoch: 27 January)

Event Time Altitude Azimuth Distance (km) Brightness Sun altitude
Rises 17:25:53 0° 338° (NNW) 3,392 7.4 -15.7°
Reaches altitude 10° 17:28:25 10° 343° (NNW) 2,452 6.6 -16.1°
Maximum altitude 17:33:52 51° 59° (ENE) 1,041 4.3 -17.1°
Drops below altitude 10° 17:39:18 10° 135° (SE) 2,438 6.3 -18.0°
Enters shadow 17:40:28 - 138° (SE) 2,869 6.7 -18.2°
